FW9434 Weather Reports


Display with metric or nautical units.
time (UTC)temp
F
wind
direction
speed
MPH
gust
MPH
rain 1hr
in
rain 24hr
in
rain mn
in
humidity
%
barometer
mb
20260506153149 66 145 5.0 6.0 0.00 0.00 0.00 77 1009.7
20260506152646 67 159 3.0 5.0 0.00 0.00 0.00 76 1009.7
20260506152143 66 234 4.0 6.0 0.00 0.00 0.00 75 1009.5
20260506151642 66 135 3.0 5.0 0.00 0.00 0.00 76 1009.5
20260506151138 67 125 0.0 1.0 0.00 0.00 0.00 76 1009.4
20260506150635 66 177 3.0 3.0 0.00 0.00 0.00 75 1009.6
20260506150132 67 107 3.0 5.0 0.00 0.00 0.00 74 1009.8
20260506145629 68 230 1.0 2.0 0.00 0.00 0.00 73 1009.9
20260506145126 68 142 1.0 2.0 0.00 0.00 0.00 73 1009.6
20260506144624 68 125 2.0 3.0 0.00 0.00 0.00 73 1009.7
20260506144120 68 151 3.0 5.0 0.00 0.00 0.00 73 1009.7
20260506143618 68 193 2.0 3.0 0.00 0.00 0.00 72 1009.6
20260506143116 68 171 1.0 2.0 0.00 0.00 0.00 73 1009.9
20260506142614 68 210 3.0 5.0 0.00 0.00 0.00 71 1009.6
20260506142112 67 177 1.0 2.0 0.00 0.00 0.00 73 1009.6
20260506141609 67 169 2.0 2.0 0.00 0.00 0.00 74 1009.6
20260506141107 67 131 0.0 1.0 0.00 0.00 0.00 75 1009.5
20260506140604 67 219 2.0 2.0 0.00 0.00 0.00 74 1009.9
20260506135558 67 175 2.0 3.0 0.00 0.00 0.00 74 1009.8
20260506135054 67 142 2.0 2.0 0.00 0.00 0.00 74 1009.6
20260506134551 67 162 4.0 5.0 0.00 0.00 0.00 74 1009.8
20260506134047 67 185 3.0 6.0 0.00 0.00 0.00 74 1009.9
20260506133544 67 127 4.0 6.0 0.00 0.00 0.00 74 1009.9
20260506133041 66 136 2.0 3.0 0.00 0.00 0.00 75 1009.9
20260506132538 67 169 1.0 2.0 0.00 0.00 0.00 74 1009.9
20260506131434 66 171 2.0 5.0 0.00 0.00 0.00 75 1010.0
20260506130931 66 171 2.0 5.0 0.00 0.00 0.00 75 1010.0
20260506130427 66 199 2.0 2.0 0.00 0.00 0.00 75 1010.0
20260506125926 66 142 1.0 1.0 0.00 0.00 0.00 76 1009.9
20260506125424 66 95 4.0 7.0 0.00 0.00 0.00 75 1009.7
20260506124922 66 177 4.0 6.0 0.00 0.00 0.00 75 1009.7
20260506124419 66 178 3.0 5.0 0.00 0.00 0.00 76 1009.7
20260506123917 66 127 3.0 3.0 0.00 0.00 0.00 76 1009.5
20260506123414 65 136 5.0 7.0 0.00 0.00 0.00 77 1009.3
20260506122911 65 174 5.0 6.0 0.00 0.00 0.00 77 1009.5
20260506122408 65 168 4.0 5.0 0.00 0.00 0.00 78 1009.6
20260506121907 65 118 2.0 2.0 0.00 0.00 0.00 79 1009.7
20260506121403 64 135 2.0 2.0 0.00 0.00 0.00 79 1010.0
20260506120900 64 125 1.0 2.0 0.00 0.00 0.00 79 1010.1
20260506120358 64 186 2.0 3.0 0.00 0.00 0.00 79 1009.9
20260506115855 64 80 3.0 3.0 0.00 0.00 0.00 79 1009.9
20260506115353 65 265 4.0 6.0 0.00 0.00 0.00 79 1010.1
20260506114851 65 244 3.0 5.0 0.00 0.00 0.00 79 1010.3
20260506114348 65 152 3.0 3.0 0.00 0.00 0.00 79 1010.2
20260506113847 65 164 3.0 6.0 0.00 0.00 0.00 79 1009.9
20260506113344 64 142 4.0 6.0 0.00 0.00 0.00 80 1010.1
20260506112840 64 195 5.0 6.0 0.00 0.00 0.00 81 1010.1
20260506112338 64 187 4.0 5.0 0.00 0.00 0.00 81 1010.0
20260506111835 64 158 8.0 9.0 0.00 0.00 0.00 81 1010.1
20260506111333 64 158 4.0 5.0 0.00 0.00 0.00 81 1009.9
20260506110830 64 149 4.0 5.0 0.00 0.00 0.00 81 1009.9
20260506110327 64 137 5.0 6.0 0.00 0.00 0.00 81 1009.9
20260506105824 63 136 4.0 5.0 0.00 0.00 0.00 81 1009.7
20260506105320 63 127 5.0 6.0 0.00 0.00 0.00 82 1009.9
20260506104818 63 185 6.0 7.0 0.00 0.00 0.00 82 1009.9
20260506104316 63 177 2.0 2.0 0.00 0.00 0.00 82 1009.8
20260506103813 63 164 1.0 2.0 0.00 0.00 0.00 82 1009.8
20260506103311 63 159 3.0 3.0 0.00 0.00 0.00 82 1009.5
20260506102808 63 145 1.0 1.0 0.00 0.00 0.00 82 1009.7
20260506102306 63 138 2.0 3.0 0.00 0.00 0.00 82 1010.0
20260506101803 63 149 4.0 6.0 0.00 0.00 0.00 83 1009.8
20260506101259 63 163 3.0 5.0 0.00 0.00 0.00 82 1009.7
20260506100757 63 134 3.0 3.0 0.00 0.00 0.00 82 1009.6
20260506100255 63 142 2.0 2.0 0.00 0.00 0.00 82 1009.6
20260506095753 63 175 3.0 3.0 0.00 0.00 0.00 82 1009.5
20260506095249 63 142 5.0 6.0 0.00 0.00 0.00 82 1009.6
20260506094746 63 149 3.0 5.0 0.00 0.00 0.00 82 1009.4
20260506094245 63 137 3.0 3.0 0.00 0.00 0.00 83 1009.6
20260506093743 63 142 3.0 3.0 0.00 0.00 0.00 83 1009.3
20260506093240 63 175 3.0 3.0 0.00 0.00 0.00 83 1009.4
20260506092737 63 145 2.0 3.0 0.00 0.00 0.00 83 1009.5
20260506092235 63 169 3.0 3.0 0.00 0.00 0.00 83 1009.6
20260506091732 63 138 2.0 2.0 0.00 0.00 0.00 83 1009.8
20260506091230 63 196 2.0 3.0 0.00 0.00 0.00 83 1009.8
20260506090727 63 142 1.0 2.0 0.00 0.00 0.00 83 1009.7
20260506090224 63 145 1.0 2.0 0.00 0.00 0.00 83 1009.7
20260506085721 63 164 4.0 5.0 0.00 0.00 0.00 82 1009.7
20260506085217 64 149 4.0 5.0 0.00 0.00 0.00 82 1009.8
20260506084714 64 180 4.0 5.0 0.00 0.00 0.00 82 1009.8
20260506084210 64 142 3.0 5.0 0.00 0.00 0.00 82 1009.8
20260506083707 64 152 3.0 3.0 0.00 0.00 0.00 82 1009.9
20260506083205 64 168 5.0 7.0 0.00 0.00 0.00 81 1009.8
20260506082702 64 186 5.0 6.0 0.00 0.00 0.00 81 1009.9
20260506082202 64 141 4.0 5.0 0.00 0.00 0.00 81 1009.8
20260506081700 64 142 2.0 2.0 0.00 0.00 0.00 81 1010.0
20260506081158 64 151 2.0 3.0 0.00 0.00 0.00 81 1009.9
20260506080656 64 149 2.0 2.0 0.00 0.00 0.00 81 1009.7
20260506080152 64 122 2.0 2.0 0.00 0.00 0.00 80 1010.0
20260506073136 64 113 3.0 6.0 0.00 0.00 0.00 79 1009.9
20260506072632 65 159 2.0 3.0 0.00 0.00 0.00 79 1010.1
20260506072131 65 169 4.0 5.0 0.00 0.00 0.00 78 1009.8
20260506071628 65 159 4.0 5.0 0.00 0.00 0.00 78 1009.8
20260506071126 65 150 3.0 3.0 0.00 0.00 0.00 78 1009.9
20260506070622 65 152 4.0 5.0 0.00 0.00 0.00 77 1009.9
20260506070119 65 162 3.0 3.0 0.00 0.00 0.00 77 1010.1
20260506062056 66 155 3.0 3.0 0.00 0.00 0.00 75 1010.1
20260506061552 65 123 4.0 5.0 0.00 0.00 0.00 75 1010.4
20260506061050 66 151 3.0 3.0 0.00 0.00 0.00 74 1010.0
20260506060549 66 114 3.0 3.0 0.00 0.00 0.00 74 1010.3
20260506051017 66 159 2.0 3.0 0.00 0.00 0.00 71 1010.6
20260506050515 66 168 3.0 5.0 0.00 0.00 0.00 71 1010.8
20260506045005 66 118 4.0 5.0 0.00 0.00 0.00 70 1010.8
20260506044504 66 135 2.0 2.0 0.00 0.00 0.00 69 1010.9
20260506044000 66 143 3.0 5.0 0.00 0.00 0.00 70 1010.7
20260506043457 66 120 2.0 3.0 0.00 0.00 0.00 70 1010.9
20260506042955 67 142 1.0 2.0 0.00 0.00 0.00 69 1010.9
20260506042455 67 127 2.0 2.0 0.00 0.00 0.00 69 1010.6
20260506041952 67 159 3.0 3.0 0.00 0.00 0.00 68 1010.4
20260506041450 67 149 2.0 2.0 0.00 0.00 0.00 68 1010.7
20260506040947 67 118 2.0 3.0 0.00 0.00 0.00 68 1010.7
20260506040444 67 142 3.0 5.0 0.00 0.00 0.00 67 1010.9
20260506035940 67 187 3.0 6.0 0.00 0.00 0.00 67 1010.7
20260506035438 67 173 4.0 6.0 0.00 0.00 0.00 67 1010.8
20260506034934 67 137 3.0 3.0 0.00 0.00 0.00 66 1010.8
20260506034431 67 180 3.0 3.0 0.00 0.00 0.00 67 1010.4
20260506033929 67 103 1.0 2.0 0.00 0.00 0.00 66 1010.8
20260506033426 68 112 2.0 2.0 0.00 0.00 0.00 66 1010.8
20260506032922 67 180 5.0 7.0 0.00 0.00 0.00 66 1010.8
20260506032420 68 165 4.0 5.0 0.00 0.00 0.00 65 1010.6
20260506031916 67 129 3.0 6.0 0.00 0.00 0.00 65 1010.8
20260506031414 68 137 4.0 6.0 0.00 0.00 0.00 65 1010.8
20260506030911 68 121 3.0 3.0 0.00 0.00 0.00 65 1010.8
20260506030409 68 145 3.0 3.0 0.00 0.00 0.00 65 1010.6
20260506025906 68 118 4.0 5.0 0.00 0.00 0.00 64 1010.5
20260506025403 68 137 4.0 5.0 0.00 0.00 0.00 65 1010.7
20260506024859 68 142 2.0 3.0 0.00 0.00 0.00 64 1010.7
20260506024356 68 138 5.0 7.0 0.00 0.00 0.00 64 1010.7
20260506023852 69 158 5.0 7.0 0.00 0.00 0.00 63 1010.7
20260506023349 69 181 3.0 5.0 0.00 0.00 0.00 62 1010.7
20260506022846 70 174 4.0 6.0 0.00 0.00 0.00 62 1010.6
20260506022343 70 136 2.0 3.0 0.00 0.00 0.00 61 1010.7
20260506021841 70 142 0.0 2.0 0.00 0.00 0.00 60 1010.4
20260506021338 70 201 4.0 6.0 0.00 0.00 0.00 59 1010.4
20260506020834 71 144 3.0 3.0 0.00 0.00 0.00 59 1010.3
20260506020333 71 142 3.0 3.0 0.00 0.00 0.00 58 1010.4
20260506015830 71 193 8.0 9.0 0.00 0.00 0.00 57 1010.6
20260506015327 71 189 6.0 10.0 0.00 0.00 0.00 57 1010.6
20260506014824 72 167 9.0 13.0 0.00 0.00 0.00 56 1010.2
20260506014321 72 169 5.0 6.0 0.00 0.00 0.00 55 1010.4
20260506013817 72 198 4.0 6.0 0.00 0.00 0.00 54 1010.4
20260506013315 72 164 3.0 6.0 0.00 0.00 0.00 53 1010.4
20260506012811 73 179 7.0 8.0 0.00 0.00 0.00 53 1010.3
20260506012308 73 142 1.0 2.0 0.00 0.00 0.00 51 1010.2
20260506011806 73 172 3.0 5.0 0.00 0.00 0.00 50 1010.1
20260506011302 73 177 5.0 6.0 0.00 0.00 0.00 49 1010.0
20260506010800 74 167 2.0 3.0 0.00 0.00 0.00 48 1009.8
20260506010257 74 149 8.0 9.0 0.00 0.00 0.00 48 1009.9
20260506005754 74 171 6.0 8.0 0.00 0.00 0.00 46 1009.9
20260506005251 74 179 4.0 7.0 0.00 0.00 0.00 47 1009.7
20260506004747 75 146 3.0 5.0 0.00 0.00 0.00 46 1009.7
20260506004245 75 151 4.0 5.0 0.00 0.00 0.00 46 1009.7
20260506003740 75 193 6.0 7.0 0.00 0.00 0.00 46 1009.7
20260506003237 75 138 5.0 6.0 0.00 0.00 0.00 45 1009.3
20260506002733 76 159 5.0 6.0 0.00 0.00 0.00 45 1009.5
20260506002229 76 155 7.0 9.0 0.00 0.00 0.00 44 1009.5
20260506001725 76 190 6.0 9.0 0.00 0.00 0.00 45 1009.7
20260506001223 76 193 5.0 6.0 0.00 0.00 0.00 44 1009.4
20260506000720 76 140 11.0 13.0 0.00 0.00 0.00 43 1009.2
20260506000219 77 191 7.0 9.0 0.00 0.00 0.00 43 1009.4
20260505235714 77 131 4.0 6.0 0.00 0.00 0.00 42 1009.2
20260505235213 77 155 3.0 6.0 0.00 0.00 0.00 42 1009.5
20260505234709 77 120 4.0 5.0 0.00 0.00 0.00 40 1008.9
20260505234206 77 180 5.0 6.0 0.00 0.00 0.00 39 1009.3
20260505233702 77 137 4.0 6.0 0.00 0.00 0.00 39 1008.9
20260505233200 77 170 2.0 3.0 0.00 0.00 0.00 39 1009.0
20260505232658 78 123 4.0 7.0 0.00 0.00 0.00 38 1008.9
20260505232155 78 162 4.0 5.0 0.00 0.00 0.00 37 1008.7
20260505231652 78 98 1.0 5.0 0.00 0.00 0.00 38 1008.7
20260505231151 78 117 1.0 1.0 0.00 0.00 0.00 37 1008.8
20260505230648 78 113 3.0 3.0 0.00 0.00 0.00 37 1008.9
20260505230145 78 138 5.0 7.0 0.00 0.00 0.00 37 1008.6
20260505225641 78 142 5.0 6.0 0.00 0.00 0.00 36 1008.3
20260505225137 78 162 6.0 8.0 0.00 0.00 0.00 36 1008.4
20260505224634 78 131 5.0 6.0 0.00 0.00 0.00 35 1008.6
20260505224132 79 141 6.0 10.0 0.00 0.00 0.00 35 1008.3
20260505223629 79 181 2.0 3.0 0.00 0.00 0.00 34 1008.4
20260505223125 79 125 3.0 5.0 0.00 0.00 0.00 34 1008.2
20260505222621 79 144 3.0 5.0 0.00 0.00 0.00 34 1008.3
20260505222117 79 197 3.0 3.0 0.00 0.00 0.00 33 1008.7
20260505221614 79 144 4.0 6.0 0.00 0.00 0.00 34 1008.3
20260505221111 79 193 4.0 6.0 0.00 0.00 0.00 33 1008.5
20260505220609 79 176 5.0 6.0 0.00 0.00 0.00 32 1008.4
20260505220106 79 120 2.0 5.0 0.00 0.00 0.00 35 1008.2
20260505215604 79 151 0.0 1.0 0.00 0.00 0.00 33 1008.4
20260505215101 79 170 4.0 6.0 0.00 0.00 0.00 33 1008.1
20260505214600 79 76 4.0 5.0 0.00 0.00 0.00 32 1008.2
20260505214056 80 162 5.0 7.0 0.00 0.00 0.00 32 1008.0
20260505213554 81 107 4.0 6.0 0.00 0.00 0.00 32 1007.9
20260505213050 81 265 6.0 8.0 0.00 0.00 0.00 31 1007.8
20260505212546 81 315 4.0 6.0 0.00 0.00 0.00 32 1008.0
20260505212044 81 66 3.0 5.0 0.00 0.00 0.00 33 1007.9
20260505211541 81 158 2.0 5.0 0.00 0.00 0.00 33 1007.9
20260505211037 81 161 5.0 7.0 0.00 0.00 0.00 33 1007.9
20260505210534 81 176 12.0 20.0 0.00 0.00 0.00 32 1007.7
20260505210031 81 134 7.0 8.0 0.00 0.00 0.00 33 1007.8
20260505205529 82 267 5.0 7.0 0.00 0.00 0.00 34 1007.9
20260505205026 81 218 2.0 5.0 0.00 0.00 0.00 34 1008.0
20260505204524 81 142 4.0 5.0 0.00 0.00 0.00 34 1007.7
20260505204021 81 171 2.0 3.0 0.00 0.00 0.00 35 1008.0
20260505203517 81 225 5.0 6.0 0.00 0.00 0.00 35 1007.8
20260505203014 81 184 6.0 8.0 0.00 0.00 0.00 35 1007.9
20260505202510 81 141 2.0 3.0 0.00 0.00 0.00 34 1008.0
20260505202006 81 190 3.0 6.0 0.00 0.00 0.00 34 1007.8
20260505201504 81 72 5.0 8.0 0.00 0.00 0.00 35 1007.7
20260505201001 81 107 2.0 2.0 0.00 0.00 0.00 35 1008.0
20260505200459 82 120 9.0 13.0 0.00 0.00 0.00 34 1008.2
20260505195954 81 191 8.0 9.0 0.00 0.00 0.00 33 1008.1
20260505195452 81 183 7.0 8.0 0.00 0.00 0.00 35 1008.2
20260505194949 81 205 7.0 9.0 0.00 0.00 0.00 35 1008.1
20260505194446 81 236 8.0 13.0 0.00 0.00 0.00 35 1008.0
20260505193946 81 151 6.0 14.0 0.00 0.00 0.00 36 1008.5
20260505193444 81 145 3.0 5.0 0.00 0.00 0.00 37 1008.0
20260505192941 81 136 2.0 2.0 0.00 0.00 0.00 39 1008.4
20260505192440 81 128 3.0 5.0 0.00 0.00 0.00 35 1008.3
20260505191937 81 117 2.0 3.0 0.00 0.00 0.00 36 1008.6
20260505191436 81 145 6.0 7.0 0.00 0.00 0.00 38 1008.5
20260505190932 81 136 8.0 10.0 0.00 0.00 0.00 38 1008.7
20260505190427 81 184 5.0 6.0 0.00 0.00 0.00 40 1008.5
20260505185923 81 122 4.0 8.0 0.00 0.00 0.00 38 1008.9
20260505185421 80 108 2.0 5.0 0.00 0.00 0.00 39 1008.8
20260505184916 81 138 8.0 9.0 0.00 0.00 0.00 39 1008.8
20260505184413 81 216 5.0 7.0 0.00 0.00 0.00 38 1008.7
20260505183910 82 138 2.0 3.0 0.00 0.00 0.00 40 1009.4
20260505183407 81 234 1.0 3.0 0.00 0.00 0.00 39 1009.2
20260505182904 81 163 3.0 7.0 0.00 0.00 0.00 38 1009.3
20260505182401 80 131 4.0 7.0 0.00 0.00 0.00 38 1009.3
20260505181857 81 158 9.0 10.0 0.00 0.00 0.00 38 1009.3
20260505181355 80 163 9.0 11.0 0.00 0.00 0.00 40 1009.2
20260505180851 81 205 3.0 5.0 0.00 0.00 0.00 43 1009.4
20260505180347 80 131 5.0 6.0 0.00 0.00 0.00 43 1009.5
20260505175844 80 163 6.0 7.0 0.00 0.00 0.00 42 1009.2
20260505175340 80 161 12.0 17.0 0.00 0.00 0.00 43 1009.6
20260505174837 80 142 4.0 5.0 0.00 0.00 0.00 44 1009.6
20260505174335 80 133 3.0 6.0 0.00 0.00 0.00 44 1009.6
20260505173830 79 192 8.0 10.0 0.00 0.00 0.00 44 1009.4
20260505173327 80 138 6.0 9.0 0.00 0.00 0.00 44 1009.4
20260505172824 80 119 2.0 5.0 0.00 0.00 0.00 44 1009.8
20260505172322 81 116 4.0 6.0 0.00 0.00 0.00 43 1009.6
20260505171821 81 158 5.0 6.0 0.00 0.00 0.00 44 1009.6
20260505171319 81 222 4.0 7.0 0.00 0.00 0.00 41 1009.8
20260505170815 81 162 2.0 2.0 0.00 0.00 0.00 42 1009.7
20260505170312 80 158 2.0 3.0 0.00 0.00 0.00 43 1010.2
20260505165807 80 181 4.0 7.0 0.00 0.00 0.00 42 1010.1
20260505165306 79 330 2.0 2.0 0.00 0.00 0.00 45 1010.1
20260505164759 80 103 1.0 3.0 0.00 0.00 0.00 47 1009.9
20260505164256 80 180 2.0 3.0 0.00 0.00 0.00 43 1010.0
20260505163755 80 316 2.0 2.0 0.00 0.00 0.00 44 1010.3
20260505163253 79 214 4.0 5.0 0.00 0.00 0.00 43 1010.2
20260505162750 79 163 4.0 5.0 0.00 0.00 0.00 43 1010.5
20260505162247 79 217 1.0 2.0 0.00 0.00 0.00 44 1010.5
20260505161744 78 200 4.0 5.0 0.00 0.00 0.00 45 1010.2
20260505161241 78 218 3.0 5.0 0.00 0.00 0.00 46 1010.4
20260505160738 78 199 9.0 11.0 0.00 0.00 0.00 47 1010.8
20260505160236 78 133 1.0 2.0 0.00 0.00 0.00 47 1010.8